Regional Weather Roundup
Issued by NWS

Home | Current Version | Previous Version | Graphics & Text | Print | Product List | Glossary On
Versions: 1 2 3 4 5 6 7 8 9 10 11 12 13 14 15 16 17 18 19 20 21 22 23 24 25 26 27 28 29 30 31 32 33 34 35 36 37 38 39 40 41 42 43 44 45 46 47 48 49 50
000
ASUS43 KMPX 240901
RWRMN
WEATHER ROUNDUP FOR MINNESOTA
NATIONAL WEATHER SERVICE TWIN CITIES/CHANHASSEN MN
400 AM CDT SUN SEP 24 2017


NOTE: "FAIR" INDICATES FEW OR NO CLOUDS BELOW 12,000 FEET WITH NO
SIGNIFICANT WEATHER AND/OR OBSTRUCTIONS TO VISIBILITY. N/A MEANS
CURRENT SKY AND/OR WEATHER CONDITIONS ARE NOT AVAILABLE.

MNZ060>063-068>070-241000-
   Twin Cities Metro

CITY           SKY/WX    TMP DP  RH WIND       PRES   REMARKS
TWIN CITIES    PTCLDY    76  65  68 S10       29.93F
ST PAUL        PTCLDY    69  66  90 SE6       29.94S
CRYSTAL        CLEAR     68  64  87 CALM      29.92S
BLAINE         CLEAR     70  66  88 S5        29.93S
LAKEVILLE      PTCLDY    66  63  88 CALM      29.94S
EDEN PRAIRIE   PTCLDY    73  64  73 CALM      29.92S
SOUTH ST PAUL  PTCLDY    70  64  79 CALM      29.94S
LAKE ELMO      FAIR      70  64  83 CALM      29.96S
$$
MNZ001>005-007-008-013>017-022>024-027-028-241000-
   Northwest Minnesota

CITY           SKY/WX    TMP DP  RH WIND       PRES   REMARKS
BEMIDJI        CLOUDY    56  55  99 E5        29.92F
HALLOCK        DRIZZLE   52  52 100 N10       29.96F
ROSEAU         DRIZZLE   54  48  82 NE8       29.94F
WARROAD        DRIZZLE   55  52  88 NE13      29.95F
CROOKSTON      LGT RAIN  55  54  94 N6        29.93S
FOSSTON        DRIZZLE   54  54 100 CALM      29.91S
DETROIT LAKES  CLOUDY    59  59 100 SE6       29.91R
MOORHEAD       LGT RAIN  55  55 100 N6        29.89F
PARK RAPIDS    CLOUDY    59  58  96 SE7       29.92F
MAHNOMEN       CLOUDY    59  58  96 W3        29.90R
$$
MNZ006-009>011-018-025>026-241000-
   North Central Minnesota

CITY           SKY/WX    TMP DP  RH WIND       PRES   REMARKS
BAUDETTE       LGT RAIN  55  55 100 NE8       29.96F
FLAG ISLAND    DRIZZLE   54  54 100 E6        29.96F
INTL FALLS     LGT RAIN  57  56  96 E8        29.95F
WASKISH        DRIZZLE   55  54  94 E7        29.94F
BIG FORK       HVY RAIN  57  55  94 E7        29.93F
LONGVILLE      DRIZZLE   59  57  94 E3        29.94F
GRAND RAPIDS   CLOUDY    60  59  96 VRB5      29.99R
CRANE LAKE     LGT RAIN  57  55  94 CALM      30.00F
ORR            RAIN      57  54  88 CALM      29.94F
COOK           CLOUDY    57  57 100 CALM      29.98F FOG
WALKER         CLOUDY    58  57  98 E5        29.93F
$$
MNZ012-019>021-037-241000-
   Northeast Minnesota

CITY           SKY/WX    TMP DP  RH WIND       PRES   REMARKS
DULUTH         PTCLDY    64  64 100 E8        29.97S
ELY            CLOUDY    61  61 100 CALM      29.99F
HIBBING        MOCLDY    59  59 100 N3        29.96F
EVELETH        CLOUDY    60  57  90 NE3       29.98F
DULUTH HARBOR  CLOUDY    66  64  94 CALM      29.96S
GRAND MARAIS     N/A     64  64 100 CALM      29.97S
$$
MNZ029>031-032-039>041-046>048-054>057-064-241000-
   West Central Minnesota

CITY           SKY/WX    TMP DP  RH WIND       PRES   REMARKS
FERGUS FALLS   CLOUDY    61  61 100 E6        29.88S
WHEATON        MOCLDY    61  61 100 E8        29.86F
ALEXANDRIA     CLOUDY    62  61  96 E9        29.92F
ELBOW LAKE     MOCLDY    61  61  99 SE10      29.87F
WADENA         LGT RAIN  59  59 100 E6        29.91F
GLENWOOD       FOG       61  61 100 E13       29.91F VSB 1
APPLETON       CLOUDY    63  61  94 E10       29.87F
BENSON         CLOUDY    63  61  94 SE7       29.90F FOG
ORTONVILLE     CLOUDY    61  59  94 NE8       29.86F
MADISON        CLOUDY    64  64 100 E9        29.88F FOG
WILLMAR        CLOUDY    64  64 100 E6        29.92S FOG
$$
MNZ033>034-036-042>043-049>051-058-059-241000-
   Central Minnesota

CITY           SKY/WX    TMP DP  RH WIND       PRES   REMARKS
ST CLOUD       CLOUDY    62  62 100 NW3       29.93S
SAUK CENTRE    FOG       59  59 100 NE6       29.93F VSB 3/4
PAYNESVILLE    FOG       62  62 100 NE3       29.93F VSB 3/4
AITKIN         CLOUDY    59  57  94 N3        29.94F
PINE RIVER     CLOUDY    57  57 100 E8        29.97F
BRAINERD       CLOUDY    61  60  97 N3        29.95S
STAPLES        MOCLDY    59  59 100 E6        29.92F
LITTLE FALLS   CLOUDY    59  59 100 CALM      29.94F FOG
LITCHFIELD     FOG       66  66 100 CALM      29.93S VSB 1/4
BUFFALO        PTCLDY    68  64  85 CALM      29.93S
MAPLE LAKE     PTCLDY    64  64  99 CALM      29.93S FOG
HUTCHINSON     CLOUDY    64  64  99 SE3       29.92F
$$
MNZ037-044-045-052-053-241000-
   East Central Minnesota

CITY           SKY/WX    TMP DP  RH WIND       PRES   REMARKS
PRINCETON      CLEAR     64  64 100 CALM      29.93S FOG
MORA             N/A     59  59 100 CALM      29.95F FOG
RUSH CITY      MOCLDY    65  63  96 CALM      29.94S VSB 1
MOOSE LAKE     PTCLDY    63  61  94 CALM      29.93F
HINCKLEY       FAIR      63  63 100 CALM      29.94F FOG
CLOQUET        PTCLDY    63  61  94 SE3       29.96F
MCGREGOR       CLOUDY    61  59  94 CALM      29.95S
$$
MNZ071>073-080-081-089-090-097-098-241000-
   Southwest Minnesota

CITY           SKY/WX    TMP DP  RH WIND       PRES   REMARKS
MONTEVIDEO     FOG       61  61 100 SE5       29.89F VSB 3/4
GRANITE FALLS  FOG       63  62  99 SE5       29.91F VSB 1/4
CANBY          FOG       60  60  97 E6        29.90F VSB 1/2
MARSHALL       FOG       58  57  97 SE8       29.91F VSB 1/4
REDWOOD FALLS  FOG       61  60  97 SE3       29.91F VSB 1/4
OLIVIA         FOG       63  61  94 E3        29.90F VSB 1/2
PIPESTONE      CLEAR     59  57  94 SE8       29.90S
WORTHINGTON    PTCLDY    59  59 100 CALM      29.93F FOG
JACKSON        PTCLDY    68  61  77 CALM      29.94S
TRACY          FOG       58  58 100 CALM      29.92S VSB 1/4
SLAYTON        HAZE      57  50  78 E3        29.93F VSB 3/4
$$
MNZ065>067-074>077-082>085-091>093-241000-
   South Central Minnesota

CITY           SKY/WX    TMP DP  RH WIND       PRES   REMARKS
MANKATO        CLEAR     71  64  78 S7        29.94S
NEW ULM        PTCLDY    64  63  94 SE5       29.92S
ST JAMES       PTCLDY    61  61 100 CALM      29.94S
FAIRMONT       CLEAR     68  64  87 S7        29.94S
FARIBAULT      CLOUDY    68  63  83 SE3       29.95F
OWATONNA       CLOUDY    72  63  73 SE9       29.96S
WASECA         PTCLDY    66  61  82 SE6       29.97S
ALBERT LEA     CLEAR     73  64  73 S9        29.97S
$$
MNZ078>079-086>088-094>096-241000-
   Southeast Minnesota

CITY           SKY/WX    TMP DP  RH WIND       PRES   REMARKS
ROCHESTER      CLEAR     68  62  81 S7        30.00S
RED WING       PTCLDY    72  61  68 SE6       29.95F
STANTON        PTCLDY    71  63  75 SW5       29.94F
DODGE CENTER   CLEAR     66  61  82 SE6       29.98F
WINONA         CLEAR     77  63  61 CALM      29.99S
AUSTIN         CLEAR     70  61  73 SE3       29.98F
PRESTON        CLEAR     69  61  76 S7        30.02S
$$
ABBREVIATIONS USED IN REMARKS
   TC - TEMPERATURES IN CELSIUS
  WCI - WIND CHILL INDEX
   HX - HEAT INDEX
  VSB - VISIBILITY
$$



USA.gov is the U.S. government's official web portal to all federal, state and local government web resources and services.